Harvey, ND

11:06 PM CDT on April 28, 2017 (GMT -0500)
Harvey

Weather History for K5H4 - March, 2012

Change the Weather History Date:

Monday, March 19, 2012

  Actual Average (KRUG) Record (KRUG)
Temperature  
Mean Temperature 56 °F -  
Max Temperature 68 °F 37 °F 69 °F (2012)
Min Temperature 42 °F 19 °F -9 °F (1965)
Degree Days  
Heating Degree Days 9    
Growing Degree Days 6 (Base 50)    
Moisture  
Dew Point 47 °F    
Average Humidity 68    
Maximum Humidity 100    
Minimum Humidity 30    
Precipitation  
Precipitation 0.00 in - - ()
Sea Level Pressure  
Sea Level Pressure 29.34 in    
Wind  
Wind Speed 17 mph (South)    
Max Wind Speed 28 mph    
Max Gust Speed 38 mph    
Visibility 10 miles    
Events Rain    
Averages and records for this station are not official NWS values.
T = Trace of Precipitation, MM = Missing Value Source: NWS Daily Summary

Daily Weather History Graph

Daily Weather History Graph

Search for Another Location

Airport or City:

Trip Planner

Search our weather history database for the weather conditions in past years. The results will help you decide how hot, cold, wet, or windy it might be!

Date:

Astronomy

Mar. 19, 2012 Rise Set
Actual Time 7:43 AM CDT 7:51 PM CDT
Civil Twilight 7:12 AM CDT 8:22 PM CDT
Nautical Twilight 6:36 AM CDT 8:59 PM CDT
Astronomical Twilight 5:59 AM CDT 9:36 PM CDT
Moon 6:06 AM CDT (3/19) 5:13 PM CDT (3/19)
Length of Visible Light 13h 09m
Length of Day
12h 08m
Waning Crescent, 8% of the Moon is Illuminated
Mar 19
Waning Crescent
Mar 22
New
Mar 30
First Quarter
Apr 6
Full
Apr 13
Last Quarter

Hourly Weather History & Observations

Time (CDT) Temp. Windchill Dew Point Humidity Pressure Visibility Wind Dir Wind Speed Gust Speed Precip Events Conditions
12:15 AM 57.2 °F - 50.0 °F 77% 29.30 in 10.0 mi SSE 10.4 mph - N/A   Clear
12:35 AM 57.2 °F - 48.2 °F 72% 29.29 in 10.0 mi SSE 10.4 mph - N/A   Clear
1:15 AM 64.4 °F - 53.6 °F 68% 29.28 in 10.0 mi South 18.4 mph 24.2 mph N/A   Clear
1:55 AM 64.4 °F - 53.6 °F 68% 29.28 in 10.0 mi South 20.7 mph 28.8 mph N/A   Clear
2:15 AM 62.6 °F - 53.6 °F 72% 29.28 in 10.0 mi South 18.4 mph 27.6 mph N/A   Clear
2:35 AM 62.6 °F - 55.4 °F 77% 29.28 in 10.0 mi SSE 20.7 mph 28.8 mph N/A   Clear
2:55 AM 62.6 °F - 55.4 °F 77% 29.28 in 10.0 mi SSE 17.3 mph 26.5 mph N/A   Clear
3:15 AM 62.6 °F - 55.4 °F 77% 29.28 in 10.0 mi SSE 17.3 mph 27.6 mph N/A   Clear
4:15 AM 60.8 °F - 57.2 °F 88% 29.28 in 10.0 mi South 16.1 mph 26.5 mph N/A   Clear
4:35 AM 59.0 °F - 57.2 °F 94% 29.28 in 10.0 mi South 16.1 mph 25.3 mph N/A   Clear
4:55 AM 59.0 °F - 57.2 °F 94% 29.28 in 10.0 mi South 20.7 mph 26.5 mph N/A   Clear
5:15 AM 59.0 °F - 57.2 °F 94% 29.28 in 10.0 mi South 19.6 mph 27.6 mph N/A   Clear
5:35 AM 59.0 °F - 57.2 °F 94% 29.28 in 10.0 mi South 18.4 mph 27.6 mph N/A   Clear
5:55 AM 59.0 °F - 57.2 °F 94% 29.28 in 10.0 mi South 20.7 mph 27.6 mph N/A   Clear
6:15 AM 59.0 °F - 57.2 °F 94% 29.28 in 10.0 mi South 19.6 mph 25.3 mph N/A   Clear
6:35 AM 59.0 °F - 57.2 °F 94% 29.29 in 10.0 mi South 19.6 mph 25.3 mph N/A   Clear
7:15 AM 59.0 °F - 57.2 °F 94% 29.30 in 10.0 mi SSE 17.3 mph - N/A   Clear
7:35 AM 59.0 °F - 55.4 °F 88% 29.30 in 10.0 mi South 15.0 mph 25.3 mph N/A   Clear
7:55 AM 59.0 °F - 55.4 °F 88% 29.30 in 10.0 mi South 19.6 mph 25.3 mph N/A   Clear
8:15 AM 59.0 °F - 55.4 °F 88% 29.30 in 10.0 mi South 20.7 mph 27.6 mph N/A   Clear
8:35 AM 57.2 °F - 57.2 °F 100% 29.31 in 10.0 mi South 20.7 mph 27.6 mph N/A   Clear
8:55 AM 59.0 °F - 57.2 °F 94% 29.31 in 10.0 mi South 20.7 mph 27.6 mph N/A   Clear
9:15 AM 59.0 °F - 57.2 °F 94% 29.31 in 10.0 mi South 21.9 mph 27.6 mph N/A   Clear
9:55 AM 60.8 °F - 57.2 °F 88% 29.32 in 10.0 mi South 25.3 mph 34.5 mph N/A   Clear
10:15 AM 62.6 °F - 57.2 °F 82% 29.32 in 10.0 mi South 19.6 mph 27.6 mph N/A   Clear
10:35 AM 64.4 °F - 57.2 °F 77% 29.33 in 10.0 mi South 18.4 mph 31.1 mph N/A   Clear
10:55 AM 64.4 °F - 57.2 °F 77% 29.33 in 10.0 mi SSW 24.2 mph 32.2 mph N/A   Scattered Clouds
11:15 AM 66.2 °F - 57.2 °F 73% 29.34 in 10.0 mi South 27.6 mph 35.7 mph N/A   Scattered Clouds
11:35 AM 66.2 °F - 57.2 °F 73% 29.34 in 10.0 mi SSW 25.3 mph 38.0 mph N/A   Partly Cloudy
11:55 AM 66.2 °F - 57.2 °F 73% 29.33 in 10.0 mi SSW 23.0 mph 33.4 mph N/A   Partly Cloudy
12:15 PM 68.0 °F - 55.4 °F 64% 29.33 in 10.0 mi SSW 19.6 mph 28.8 mph N/A   Clear
12:35 PM 68.0 °F - 51.8 °F 56% 29.32 in 10.0 mi SSW 19.6 mph 31.1 mph N/A   Clear
1:15 PM 68.0 °F - 44.6 °F 43% 29.33 in 10.0 mi SSW 21.9 mph 32.2 mph N/A   Clear
1:35 PM 68.0 °F - 42.8 °F 40% 29.33 in 10.0 mi SSW 21.9 mph 29.9 mph N/A   Clear
1:55 PM 68.0 °F - 41.0 °F 37% 29.34 in 10.0 mi South 20.7 mph 31.1 mph N/A   Clear
2:35 PM 68.0 °F - 35.6 °F 30% 29.35 in 10.0 mi South 20.7 mph 33.4 mph N/A   Clear
4:15 PM 62.6 °F - 35.6 °F 37% 29.37 in 10.0 mi South 19.6 mph 32.2 mph N/A   Mostly Cloudy
4:55 PM 57.2 °F - 41.0 °F 55% 29.39 in 9.0 mi South 15.0 mph 23.0 mph N/A Rain Light Rain
5:35 PM 59.0 °F - 42.8 °F 55% 29.36 in 10.0 mi SSE 12.7 mph 18.4 mph N/A   Scattered Clouds
5:55 PM 59.0 °F - 42.8 °F 55% 29.37 in 10.0 mi South 12.7 mph 19.6 mph N/A   Scattered Clouds
6:15 PM 59.0 °F - 41.0 °F 51% 29.37 in 10.0 mi SSE 13.8 mph - N/A   Clear
6:35 PM 59.0 °F - 37.4 °F 45% 29.36 in 10.0 mi South 12.7 mph - N/A   Clear
7:15 PM 57.2 °F - 35.6 °F 44% 29.36 in 10.0 mi South 9.2 mph - N/A   Clear
7:35 PM 55.4 °F - 35.6 °F 47% 29.36 in 10.0 mi South 9.2 mph - N/A   Clear
7:55 PM 55.4 °F - 35.6 °F 47% 29.36 in 10.0 mi South 10.4 mph - N/A   Clear
8:15 PM 53.6 °F - 32.0 °F 44% 29.37 in 10.0 mi South 11.5 mph 17.3 mph N/A   Clear
8:35 PM 53.6 °F - 32.0 °F 44% 29.38 in 10.0 mi South 11.5 mph 18.4 mph N/A   Clear
8:55 PM 53.6 °F - 30.2 °F 41% 29.39 in 10.0 mi South 12.7 mph - N/A   Clear
9:15 PM 51.8 °F - 28.4 °F 41% 29.39 in 10.0 mi South 13.8 mph 18.4 mph N/A   Clear
9:35 PM 51.8 °F - 28.4 °F 41% 29.41 in 10.0 mi South 12.7 mph 17.3 mph N/A   Clear
9:55 PM 48.2 °F - 32.0 °F 54% 29.44 in 10.0 mi SW 11.5 mph - N/A   Clear
10:15 PM 46.4 °F 41.1 °F 32.0 °F 57% 29.45 in 10.0 mi WSW 11.5 mph - N/A   Clear
10:35 PM 48.2 °F - 30.2 °F 50% 29.47 in 10.0 mi West 16.1 mph 21.9 mph N/A   Clear
10:55 PM 44.6 °F 38.1 °F 32.0 °F 61% 29.49 in 10.0 mi West 13.8 mph - N/A   Clear
11:15 PM 44.6 °F 38.1 °F 32.0 °F 61% 29.52 in 10.0 mi West 13.8 mph - N/A   Clear
11:35 PM 42.8 °F 37.0 °F 32.0 °F 66% 29.54 in 10.0 mi West 10.4 mph - N/A   Clear